EW8053 Weather Reports


time (UTC)temp
F
wind
direction
speed
knots
gust
knots
rain 1hr
in
rain 24hr
in
rain mn
in
humidity
%
barometer
mb
20260903024609 78 0 0.0 0.0 0.00 0.00 0.00 80 1017.3
20260903023107 80 0 0.0 0.0 0.00 0.00 0.00 78 1017.4
20260903021603 81 0 0.0 0.0 0.00 0.00 0.00 75 1017.5
20260903020105 82 0 0.0 0.9 0.00 0.00 0.00 73 1017.4
20260903014633 83 0 0.0 2.6 0.00 0.00 0.00 71 1017.3
20260903013122 83 179 0.0 0.0 0.00 0.00 0.00 70 1017.2
20260903011611 84 0 0.0 0.9 0.00 0.00 0.00 70 1017.2
20260903010107 84 0 0.0 0.9 0.00 0.00 0.00 69 1017.0
20260903004605 84 242 0.0 2.6 0.00 0.00 0.00 68 1016.9
20260903003110 85 238 0.0 1.7 0.00 0.00 0.00 67 1016.8
20260903001609 85 0 0.0 1.7 0.00 0.00 0.00 65 1016.8
20260903000109 86 255 0.0 1.7 0.00 0.00 0.00 64 1016.7
20260902234605 87 0 0.9 2.6 0.00 0.00 0.00 63 1016.7
20260902233104 88 215 0.9 3.5 0.00 0.00 0.00 61 1016.6
20260902231603 89 216 0.9 3.5 0.00 0.00 0.00 59 1016.5
20260902230108 89 224 0.9 4.3 0.00 0.00 0.00 59 1016.6
20260902224611 90 217 0.0 4.3 0.00 0.00 0.00 59 1016.6
20260902223128 90 200 1.7 5.2 0.00 0.00 0.00 57 1016.7
20260902221605 92 219 0.9 5.2 0.00 0.00 0.00 55 1016.8
20260902220111 92 248 1.7 5.2 0.00 0.00 0.00 55 1016.8
20260902214615 92 236 1.7 4.3 0.00 0.00 0.00 56 1016.7
20260902213106 92 192 2.6 7.8 0.00 0.00 0.00 54 1016.7
20260902211605 92 196 1.7 5.2 0.00 0.00 0.00 55 1016.9
20260902210119 93 199 2.6 7.0 0.00 0.00 0.00 53 1016.9
20260902204606 93 227 1.7 6.1 0.00 0.00 0.00 50 1017.0
20260902203106 93 160 2.6 7.0 0.00 0.00 0.00 51 1017.3
20260902201606 93 240 2.6 7.0 0.00 0.00 0.00 49 1017.5
20260902200109 93 264 2.6 8.7 0.00 0.00 0.00 49 1017.7
20260902194607 93 189 2.6 8.7 0.00 0.00 0.00 48 1017.8
20260902193110 92 220 1.7 7.0 0.00 0.00 0.00 52 1017.8
20260902191607 92 237 0.9 6.1 0.00 0.00 0.00 53 1018.1
20260902190108 93 230 0.9 7.0 0.00 0.00 0.00 52 1018.1
20260902184607 93 137 2.6 6.1 0.00 0.00 0.00 50 1018.1
20260902183114 92 225 3.5 7.8 0.00 0.00 0.00 51 1018.3
20260902181606 93 220 2.6 6.1 0.00 0.00 0.00 53 1018.4
20260902180106 93 148 2.6 6.1 0.00 0.00 0.00 54 1018.6
20260902174604 92 236 0.0 5.2 0.00 0.00 0.00 56 1018.7
20260902173136 92 289 1.7 7.0 0.00 0.00 0.00 56 1019.0
20260902171626 92 319 1.7 5.2 0.00 0.00 0.00 57 1019.2
20260902170111 91 285 1.7 6.1 0.00 0.00 0.00 58 1019.2
20260902164613 91 243 1.7 4.3 0.00 0.00 0.00 61 1019.2
20260902163107 90 281 1.7 5.2 0.00 0.00 0.00 60 1019.3
20260902161606 90 207 1.7 4.3 0.00 0.00 0.00 61 1019.2
20260902160122 89 214 1.7 6.1 0.00 0.00 0.00 62 1019.4
20260902154604 88 307 1.7 6.1 0.00 0.00 0.00 62 1019.4
20260902153426 87 210 1.7 4.3 0.00 0.00 0.00 64 1019.5
20260902151607 87 250 0.9 3.5 0.00 0.00 0.00 66 1019.4
20260902150106 86 209 2.6 4.3 0.00 0.00 0.00 67 1019.4
20260902144621 85 279 0.9 4.3 0.00 0.00 0.00 68 1019.5
20260902143109 84 245 0.9 5.2 0.00 0.00 0.00 72 1019.5
20260902141611 83 215 0.9 3.5 0.00 0.00 0.00 72 1019.5
20260902140108 82 192 0.9 4.3 0.00 0.00 0.00 74 1019.4
20260902134608 82 286 0.0 3.5 0.00 0.00 0.00 75 1019.5
20260902133106 81 0 0.9 3.5 0.00 0.00 0.00 77 1019.5
20260902131628 80 0 1.7 4.3 0.00 0.00 0.00 77 1019.5
20260902130106 79 188 0.9 3.5 0.00 0.00 0.00 79 1019.4
20260902124612 78 196 0.9 3.5 0.00 0.00 0.00 80 1019.4
20260902123157 77 248 1.7 4.3 0.00 0.00 0.00 82 1019.3
20260902121602 75 270 0.9 3.5 0.00 0.00 0.00 85 1019.3
20260902120108 73 226 0.0 2.6 0.00 0.00 0.00 89 1019.1
20260902114608 71 229 0.0 0.0 0.00 0.00 0.00 90 1019.0
20260902113102 71 0 0.0 0.0 0.00 0.00 0.00 90 1018.9
20260902111609 71 0 0.0 0.0 0.00 0.00 0.00 90 1018.8
20260902110111 70 0 0.0 0.0 0.00 0.00 0.00 90 1018.8
20260902104608 70 0 0.0 0.0 0.00 0.00 0.00 90 1018.7
20260902103103 70 0 0.0 0.0 0.00 0.00 0.00 90 1018.6
20260902101607 70 0 0.0 0.0 0.00 0.00 0.00 90 1018.6
20260902094605 71 0 0.0 0.0 0.00 0.00 0.00 89 1018.7
20260902093112 72 0 0.0 0.0 0.00 0.00 0.00 88 1018.6
20260902091614 72 0 0.0 0.0 0.00 0.00 0.00 87 1018.5
20260902090109 73 0 0.0 0.0 0.00 0.00 0.00 87 1018.5
20260902084604 74 0 0.0 0.0 0.00 0.00 0.00 85 1018.4
20260902083105 75 0 0.0 0.9 0.00 0.00 0.00 85 1018.1
20260902081605 75 0 0.0 1.7 0.00 0.00 0.00 85 1018.0
20260902080104 75 224 0.0 2.6 0.00 0.00 0.00 86 1017.8
20260902074604 73 0 0.0 0.0 0.00 0.00 0.00 88 1017.8
20260902073104 72 0 0.0 0.0 0.00 0.00 0.00 88 1017.9
20260902071603 73 0 0.0 0.0 0.00 0.00 0.00 87 1017.9
20260902070107 74 0 0.0 0.0 0.00 0.00 0.00 86 1018.0
20260902064606 75 0 0.0 0.0 0.00 0.00 0.00 83 1018.0
20260902063108 76 0 0.0 0.0 0.00 0.00 0.00 82 1017.9
20260902061627 77 0 0.0 1.7 0.00 0.00 0.00 80 1018.0
20260902060115 78 293 0.0 0.9 0.00 0.00 0.00 79 1018.0
20260902054601 78 233 0.9 2.6 0.00 0.00 0.00 79 1017.9
20260902053102 78 227 0.0 0.9 0.00 0.00 0.00 80 1017.8
20260902051613 78 0 0.0 0.9 0.00 0.00 0.00 80 1017.7
20260902050105 78 162 0.0 1.7 0.00 0.00 0.00 80 1017.7
20260902044612 77 0 0.0 0.9 0.00 0.00 0.00 82 1017.9
20260902043106 76 174 0.0 0.9 0.00 0.00 0.00 85 1017.9
20260902041604 74 0 0.0 0.0 0.00 0.00 0.00 88 1018.0
20260902040107 75 0 0.0 0.0 0.00 0.00 0.00 87 1018.1
20260902034611 75 0 0.0 0.0 0.00 0.00 0.00 87 1018.1
20260902033107 75 0 0.0 0.0 0.00 0.00 0.00 86 1018.0
20260902031609 75 0 0.0 0.0 0.00 0.00 0.00 86 1018.0
20260902030105 76 0 0.0 0.0 0.00 0.00 0.00 86 1018.1